• In Uzbekistan
  • List of Countries
  • For 7 days
  • Water Temperature
  • Satellite Maps
  • Weather Map
  • Weather Widgets
  • user-avatar
    Login

    Hourly Weather Saskatoon

    Today, 22 October, Monday

    Time Temperature Precipitation Wind Pressure Humidity
    00:00 +3°C° 0 mm 3 mps 721 mmHg 72%
    01:00 +2°C° 0 mm 3 mps 721 mmHg 75%
    02:00 +2°C° 0 mm 2 mps 721 mmHg 79%
    03:00 +2°C° 0 mm 2 mps 722 mmHg 80%
    04:00 +1°C° 0 mm 2 mps 722 mmHg 81%
    05:00 +2°C° 0 mm 1 mps 722 mmHg 82%
    06:00 +2°C° 0 mm 1 mps 723 mmHg 80%
    07:00 +2°C° 0 mm 1 mps 723 mmHg 77%
    08:00 +2°C° 0 mm 1 mps 723 mmHg 75%
    09:00 +3°C° 0 mm 1 mps 723 mmHg 66%
    10:00 +5°C° 0 mm 1 mps 723 mmHg 58%
    11:00 +6°C° 0 mm 1 mps 724 mmHg 50%
    12:00 +7°C° 0 mm 1 mps 724 mmHg 46%
    13:00 +8°C° 0 mm 1 mps 723 mmHg 43%
    14:00 +9°C° 0 mm 1 mps 723 mmHg 39%
    15:00 +8°C° 0 mm 1 mps 723 mmHg 42%
    16:00 +7°C° 0 mm 1 mps 723 mmHg 44%
    17:00 +5°C° 0 mm 2 mps 722 mmHg 46%
    18:00 +4°C° 0 mm 2 mps 723 mmHg 48%
    19:00 +4°C° 0 mm 2 mps 723 mmHg 49%
    20:00 +2°C° 0 mm 3 mps 723 mmHg 51%
    21:00 +2°C° 0 mm 3 mps 723 mmHg 52%
    22:00 +2°C° 0 mm 3 mps 723 mmHg 52%
    23:00 +1°C° 0 mm 3 mps 723 mmHg 53%

    Tomorrow, 23 October, Tuesday

    Time Temperature Precipitation Wind Pressure Humidity
    00:00 +1°C° 0 mm 3 mps 723 mmHg 53%
    01:00 +1°C° 0 mm 3 mps 723 mmHg 53%
    02:00 +1°C° 0 mm 3 mps 722 mmHg 53%
    03:00 0°C° 0 mm 4 mps 722 mmHg 54%
    04:00 -1°C° 0 mm 4 mps 722 mmHg 54%
    05:00 -1°C° 0 mm 4 mps 721 mmHg 55%
    06:00 0°C° 0 mm 4 mps 721 mmHg 54%
    07:00 0°C° 0 mm 4 mps 721 mmHg 53%
    08:00 0°C° 0 mm 5 mps 721 mmHg 52%
    09:00 +2°C° 0 mm 5 mps 721 mmHg 47%
    10:00 +5°C° 0 mm 5 mps 721 mmHg 42%
    11:00 +7°C° 0 mm 5 mps 720 mmHg 37%
    12:00 +8°C° 0 mm 5 mps 720 mmHg 35%
    13:00 +9°C° 0 mm 6 mps 719 mmHg 34%
    14:00 +10°C° 0 mm 6 mps 718 mmHg 33%
    15:00 +9°C° 0 mm 5 mps 718 mmHg 36%
    16:00 +8°C° 0 mm 5 mps 718 mmHg 39%
    17:00 +7°C° 0 mm 4 mps 717 mmHg 43%
    18:00 +7°C° 0 mm 5 mps 717 mmHg 45%
    19:00 +6°C° 0 mm 5 mps 717 mmHg 47%
    20:00 +6°C° 0 mm 5 mps 717 mmHg 49%
    21:00 +6°C° 0 mm 5 mps 717 mmHg 50%
    22:00 +5°C° 0 mm 5 mps 717 mmHg 51%
    23:00 +5°C° 0 mm 5 mps 716 mmHg 52%

    Day after tomorrow, 24 October, Wednesday

    Time Temperature Precipitation Wind Pressure Humidity
    00:00 +5°C° 0 mm 5 mps 716 mmHg 52%
    01:00 +3°C° 0 mm 5 mps 716 mmHg 53%
    02:00 +3°C° 0 mm 5 mps 715 mmHg 54%
    03:00 +3°C° 0 mm 5 mps 715 mmHg 56%
    04:00 +3°C° 0 mm 5 mps 715 mmHg 57%
    05:00 +3°C° 0 mm 4 mps 714 mmHg 59%
    06:00 +2°C° 0 mm 5 mps 714 mmHg 60%
    07:00 +3°C° 0 mm 5 mps 714 mmHg 60%
    08:00 +3°C° 0 mm 5 mps 714 mmHg 61%
    09:00 +6°C° 0 mm 5 mps 714 mmHg 57%
    10:00 +7°C° 0 mm 5 mps 713 mmHg 53%
    11:00 +9°C° 0 mm 5 mps 713 mmHg 49%
    12:00 +10°C° 0 mm 5 mps 713 mmHg 48%
    13:00 +12°C° 0 mm 5 mps 712 mmHg 46%
    14:00 +13°C° 0 mm 5 mps 712 mmHg 45%
    15:00 +12°C° 0 mm 5 mps 712 mmHg 49%
    16:00 +11°C° 0 mm 4 mps 711 mmHg 53%
    17:00 +10°C° 0 mm 4 mps 711 mmHg 56%
    18:00 +10°C° 0 mm 4 mps 711 mmHg 58%
    19:00 +8°C° 0 mm 4 mps 711 mmHg 60%
    20:00 +8°C° 0 mm 5 mps 711 mmHg 62%
    21:00 +8°C° 0 mm 4 mps 711 mmHg 65%
    22:00 +7°C° 0 mm 4 mps 710 mmHg 67%
    23:00 +8°C° 0 mm 3 mps 710 mmHg 69%

    25 October, Thursday

    Time Temperature Precipitation Wind Pressure Humidity
    00:00 +7°C° 0 mm 3 mps 710 mmHg 71%
    01:00 +7°C° 0 mm 3 mps 710 mmHg 72%
    02:00 +5°C° 0 mm 3 mps 710 mmHg 73%
    03:00 +5°C° 0 mm 3 mps 710 mmHg 78%
    04:00 +4°C° 0 mm 3 mps 710 mmHg 82%
    05:00 +3°C° 0 mm 3 mps 710 mmHg 87%
    06:00 +3°C° 0 mm 3 mps 710 mmHg 87%
    07:00 +3°C° 0 mm 3 mps 710 mmHg 87%
    08:00 +3°C° 0 mm 4 mps 710 mmHg 88%
    09:00 +5°C° 0 mm 4 mps 710 mmHg 81%
    10:00 +6°C° 0 mm 4 mps 710 mmHg 74%
    11:00 +7°C° 0 mm 4 mps 710 mmHg 67%
    12:00 +8°C° 0 mm 4 mps 710 mmHg 63%
    13:00 +10°C° 0 mm 4 mps 710 mmHg 60%
    14:00 +11°C° 0 mm 4 mps 710 mmHg 56%
    15:00 +10°C° 0 mm 3 mps 710 mmHg 60%
    16:00 +9°C° 0 mm 3 mps 710 mmHg 65%
    17:00 +8°C° 0 mm 2 mps 710 mmHg 69%
    18:00 +7°C° 0 mm 2 mps 710 mmHg 71%
    19:00 +7°C° 0 mm 2 mps 711 mmHg 74%
    20:00 +6°C° 0 mm 2 mps 711 mmHg 76%
    21:00 +6°C° 0 mm 2 mps 710 mmHg 77%
    22:00 +6°C° 0 mm 1 mps 710 mmHg 79%
    23:00 +6°C° 0 mm 1 mps 710 mmHg 80%

    26 October, Friday

    Time Temperature Precipitation Wind Pressure Humidity
    00:00 +6°C° 0 mm 1 mps 710 mmHg 80%
    01:00 +6°C° 0 mm 1 mps 709 mmHg 80%
    02:00 +5°C° 0 mm 1 mps 709 mmHg 80%
    03:00 +5°C° 0 mm 1 mps 709 mmHg 80%
    04:00 +5°C° 0 mm 1 mps 708 mmHg 79%
    05:00 +5°C° 0 mm 1 mps 708 mmHg 78%
    06:00 +5°C° 0 mm 1 mps 708 mmHg 77%
    07:00 +6°C° 0 mm 1 mps 708 mmHg 75%
    08:00 +6°C° 0 mm 1 mps 707 mmHg 73%
    09:00 +6°C° 0.1 mm 2 mps 708 mmHg 71%
    10:00 +7°C° 0.1 mm 2 mps 708 mmHg 69%
    11:00 +7°C° 0.1 mm 3 mps 708 mmHg 67%
    12:00 +7°C° 0.4 mm 4 mps 708 mmHg 68%
    13:00 +7°C° 0.4 mm 5 mps 708 mmHg 70%
    14:00 +7°C° 0.4 mm 6 mps 709 mmHg 71%
    15:00 +7°C° 0.2 mm 6 mps 709 mmHg 70%
    16:00 +7°C° 0.2 mm 6 mps 710 mmHg 68%
    17:00 +7°C° 0.2 mm 6 mps 710 mmHg 66%
    18:00 +5°C° 0.1 mm 7 mps 711 mmHg 68%
    19:00 +5°C° 0.1 mm 7 mps 711 mmHg 70%
    20:00 +5°C° 0.1 mm 7 mps 712 mmHg 72%
    21:00 +5°C° 0.3 mm 7 mps 712 mmHg 70%
    22:00 +5°C° 0.3 mm 7 mps 712 mmHg 69%
    23:00 +4°C° 0.3 mm 7 mps 713 mmHg 68%

    27 October, Saturday

    Time Temperature Precipitation Wind Pressure Humidity
    00:00 +4°C° 0.2 mm 7 mps 713 mmHg 67%
    01:00 +4°C° 0.2 mm 7 mps 714 mmHg 66%
    02:00 +4°C° 0.2 mm 7 mps 714 mmHg 65%
    03:00 +3°C° 0 mm 7 mps 715 mmHg 66%
    04:00 +3°C° 0 mm 6 mps 715 mmHg 67%
    05:00 +3°C° 0 mm 6 mps 716 mmHg 69%
    06:00 +2°C° 0 mm 6 mps 716 mmHg 69%
    07:00 +2°C° 0 mm 6 mps 717 mmHg 69%
    08:00 +2°C° 0 mm 6 mps 717 mmHg 70%
    09:00 +3°C° 0 mm 6 mps 717 mmHg 64%
    10:00 +5°C° 0 mm 6 mps 717 mmHg 59%
    11:00 +7°C° 0 mm 6 mps 718 mmHg 53%
    12:00 +8°C° 0 mm 6 mps 717 mmHg 50%
    13:00 +8°C° 0 mm 6 mps 717 mmHg 46%
    14:00 +9°C° 0 mm 5 mps 717 mmHg 43%
    15:00 +8°C° 0 mm 4 mps 717 mmHg 47%
    16:00 +7°C° 0 mm 4 mps 717 mmHg 50%
    17:00 +5°C° 0 mm 3 mps 717 mmHg 53%
    18:00 +5°C° 0 mm 3 mps 717 mmHg 55%
    19:00 +5°C° 0 mm 2 mps 716 mmHg 57%
    20:00 +5°C° 0 mm 2 mps 716 mmHg 58%
    21:00 +4°C° 0 mm 2 mps 716 mmHg 58%
    22:00 +4°C° 0 mm 2 mps 716 mmHg 59%
    23:00 +4°C° 0 mm 2 mps 716 mmHg 59%

    28 October, Sunday

    Time Temperature Precipitation Wind Pressure Humidity
    00:00 +3°C° 0 mm 2 mps 716 mmHg 59%
    01:00 +3°C° 0 mm 2 mps 716 mmHg 59%
    02:00 +4°C° 0 mm 1 mps 716 mmHg 59%
    03:00 +3°C° 0 mm 2 mps 715 mmHg 59%
    04:00 +3°C° 0 mm 2 mps 715 mmHg 59%
    05:00 +2°C° 0 mm 2 mps 715 mmHg 59%
    06:00 +2°C° 0 mm 2 mps 715 mmHg 58%
    07:00 +2°C° 0 mm 3 mps 715 mmHg 58%
    08:00 +2°C° 0 mm 3 mps 715 mmHg 57%
    09:00 +4°C° 0 mm 3 mps 715 mmHg 51%
    10:00 +5°C° 0 mm 4 mps 714 mmHg 45%
    11:00 +7°C° 0 mm 4 mps 714 mmHg 39%
    12:00 +8°C° 0 mm 4 mps 714 mmHg 38%
    13:00 +10°C° 0 mm 4 mps 713 mmHg 37%
    14:00 +11°C° 0 mm 3 mps 713 mmHg 35%
    15:00 +10°C° 0 mm 3 mps 713 mmHg 40%
    16:00 +9°C° 0 mm 3 mps 712 mmHg 44%
    17:00 +8°C° 0 mm 3 mps 711 mmHg 48%
    18:00 +7°C° 0 mm 3 mps 711 mmHg 50%
    19:00 +6°C° 0 mm 4 mps 711 mmHg 52%
    20:00 +5°C° 0 mm 4 mps 710 mmHg 53%
    21:00 +5°C° 0 mm 4 mps 710 mmHg 56%
    22:00 +5°C° 0 mm 4 mps 709 mmHg 58%
    23:00 +5°C° 0 mm 4 mps 709 mmHg 60%
    Show more